sat.trackr.live / text

‹ back to catalog

STARLINK-34543

NORAD 64926 · 2025-157Y

PAYLOAD ACTIVE UNKNOWN

§ Identity

Operator
Country
US
Launch date
2025-07-26
Launch site
AFETR
Launch vehicle
Mass (kg)
RCS (m²)

Purposes: comms

External: N2YO · Heavens-Above · Gunter

§ Orbital elements

Epoch: 2026-09-19T22:47:23.783712Z

Period
94.01 min
Inclination
53.1579°
Eccentricity
0.0000789
Mean motion
15.31715552 rev/d
Perigee alt
470.2 km
Apogee alt
471.2 km
Semi-major
6,848.8 km
B*
5.5430e-4
RAAN
162.0858°
Arg perigee
92.6849°
Mean anomaly
267.4243°
Rev number
6,583

§ Raw data

STARLINK-345431 64926U 25157Y   26262.94958083  .00016883  00000+0  55430-3 0  99962 64926  53.1579 162.0858 0000789  92.6849 267.4243 15.31715552 65836

JSON: /api/v1/satellites/64926 · /tle

For live sub-satellite position, see the globe view (requires WebGL).

§ Visibility from observer

Set your observer location to see the next 7 days of passes ≥ 10°. The values pass through the URL so the page stays shareable.

No JS? Fill the form by hand. The geolocation button needs JavaScript.